Bangkok (Don Mueang), Thailand

1:32 AM +07 on August 19, 2017 (GMT +0700)
Bangkok International

Weather History for VTBD - September, 2013

Change the Weather History Date:

Friday, September 20, 2013

  Actual Average Record
Temperature  
Mean Temperature 76 °F -  
Max Temperature 78 °F 89 °F 96 °F (1997)
Min Temperature 74 °F 76 °F 73 °F (1997)
Cooling Degree Days 11    
Growing Degree Days 26 (Base 50)    
Moisture  
Dew Point 75 °F    
Average Humidity 94    
Maximum Humidity 100    
Minimum Humidity 87    
Precipitation  
Precipitation 1.34 in 0.28 in - ()
Sea Level Pressure  
Sea Level Pressure 29.65 in    
Wind  
Wind Speed 9 mph ()    
Max Wind Speed 16 mph    
Max Gust Speed -    
Visibility 4.5 miles    
Events Rain    
Averages and records for this station are not official NWS values.
T = Trace of Precipitation, MM = Missing Value Source: Averaged Metar Reports

Daily Weather History Graph

Daily Weather History Graph

Search for Another Location

Airport or City:

Trip Planner

Search our weather history database for the weather conditions in past years. The results will help you decide how hot, cold, wet, or windy it might be!

Date:

Astronomy

Sep. 20, 2013 Rise Set
Actual Time 6:06 AM +07 6:15 PM +07
Civil Twilight 5:45 AM +07 6:36 PM +07
Nautical Twilight 5:20 AM +07 7:01 PM +07
Astronomical Twilight 4:55 AM +07 7:26 PM +07
Moon 6:48 PM +07 (9/20) 6:33 AM +07 (9/20)
Length of Visible Light 12h 51m
Length of Day
12h 08m
Full, 99% of the Moon is Illuminated
Sep 20
Full
Sep 27
Last Quarter
Oct 5
New
Oct 12
First Quarter
Oct 19
Full

Hourly Weather History & Observations

Time (+07) Temp. Dew Point Humidity Pressure Visibility Wind Dir Wind Speed Gust Speed Precip Events Conditions
12:00 AM 78.8 °F 77.0 °F 94% 29.68 in 3.7 mi NW 9.2 mph - N/A Rain Light Rain
12:30 AM 78.8 °F 77.0 °F 94% 29.68 in 3.7 mi NW 9.2 mph - N/A Rain Light Rain
1:00 AM 77.0 °F 75.2 °F 94% 29.65 in 3.7 mi West 9.2 mph - N/A Rain Light Rain
1:30 AM 77.0 °F 75.2 °F 94% 29.65 in 3.7 mi West 9.2 mph - N/A Rain Light Rain
2:00 AM 77.0 °F 75.2 °F 94% 29.62 in 4.3 mi West 9.2 mph - N/A Rain Light Rain
2:30 AM 77.0 °F 75.2 °F 94% 29.62 in 4.3 mi West 9.2 mph - N/A Rain Light Rain
3:00 AM 77.0 °F 75.2 °F 94% 29.62 in 3.7 mi West 9.2 mph - N/A Rain Light Rain
3:30 AM 75.2 °F 75.2 °F 100% 29.62 in 3.7 mi West 10.4 mph - N/A Rain Light Rain
4:00 AM 75.2 °F 75.2 °F 100% 29.62 in 2.5 mi West 11.5 mph - N/A Rain Rain
4:30 AM 75.2 °F 75.2 °F 100% 29.62 in 1.2 mi WNW 12.7 mph - N/A Rain Heavy Rain
5:00 AM 75.2 °F 73.4 °F 94% 29.62 in 1.9 mi West 15.0 mph - N/A Rain Rain
5:30 AM 75.2 °F 73.4 °F 94% 29.62 in 1.9 mi WNW 11.5 mph - N/A Rain Rain
6:00 AM 75.2 °F 73.4 °F 94% 29.62 in 1.9 mi West 13.8 mph - N/A Rain Rain
6:30 AM 75.2 °F 73.4 °F 94% 29.62 in 2.5 mi WNW 11.5 mph - N/A Rain Rain
7:00 AM 74 °F 74 °F 100% 29.65 in 3 mi West 12.7 mph - - Rain Rain
7:00 AM 75.2 °F 73.4 °F 94% 29.65 in 3.1 mi West 12.7 mph - N/A Rain Light Rain
7:30 AM 75.2 °F 75.2 °F 100% 29.65 in 3.1 mi West 15.0 mph - N/A Rain Light Rain
8:00 AM 75.2 °F 75.2 °F 100% 29.65 in 3.7 mi West 15.0 mph - N/A Rain Light Rain
8:30 AM 75.2 °F 75.2 °F 100% 29.68 in 3.7 mi West 10.4 mph - N/A Rain Light Rain
9:00 AM 75.2 °F 75.2 °F 100% 29.68 in 5.0 mi West 16.1 mph - N/A Rain Light Rain
9:30 AM 75.2 °F 75.2 °F 100% 29.68 in 4.3 mi WNW 4.6 mph - N/A Rain Light Rain
10:00 AM 75.2 °F 75.2 °F 100% 29.68 in 3.1 mi WNW 11.5 mph - N/A Rain Rain
10:30 AM 75.2 °F 75.2 °F 100% 29.68 in 4.3 mi WNW 16.1 mph - N/A Rain Light Rain
11:00 AM 75.2 °F 75.2 °F 100% 29.68 in 4.3 mi WNW 9.2 mph - N/A Rain Light Rain
11:30 AM 77.0 °F 75.2 °F 94% 29.68 in 4.3 mi West 11.5 mph - N/A Rain Light Rain
12:00 PM 77.0 °F 75.2 °F 94% 29.68 in 4.3 mi West 9.2 mph - N/A Rain Light Rain
12:30 PM 77.0 °F 75.2 °F 94% 29.68 in 3.7 mi West 13.8 mph - N/A Rain Light Rain
1:00 PM 76 °F 75 °F 95% 29.67 in 4 mi West 10.4 mph - - Rain Light Rain
1:00 PM 77.0 °F 75.2 °F 94% 29.65 in 3.7 mi West 10.4 mph - N/A Rain Light Rain
1:30 PM 77.0 °F 75.2 °F 94% 29.65 in 6.2 mi West 8.1 mph - N/A Rain Light Rain
2:00 PM 77.0 °F 75.2 °F 94% 29.62 in 5.6 mi West 9.2 mph - N/A Rain Light Rain
2:30 PM 77.0 °F 75.2 °F 94% 29.62 in 3.7 mi West 9.2 mph - N/A Rain Light Rain
3:00 PM 77.0 °F 75.2 °F 94% 29.62 in 5.0 mi West 13.8 mph - N/A Rain Light Rain
3:30 PM 77.0 °F 75.2 °F 94% 29.62 in 5.6 mi WNW 10.4 mph - N/A Rain Light Rain
4:00 PM 77.0 °F 75.2 °F 94% 29.62 in 5.6 mi West 11.5 mph - N/A Rain Light Rain
4:30 PM 77.0 °F 75.2 °F 94% 29.62 in 6.2 mi West 5.8 mph - N/A Rain Light Rain
5:00 PM 77.0 °F 75.2 °F 94% 29.62 in 6.2 mi West 9.2 mph - N/A   Mostly Cloudy
5:30 PM 77.0 °F 75.2 °F 94% 29.62 in 6.2 mi West 5.8 mph - N/A   Mostly Cloudy
6:00 PM 77.0 °F 75.2 °F 94% 29.62 in 6.2 mi West 11.5 mph - N/A   Mostly Cloudy
6:30 PM 77.0 °F 75.2 °F 94% 29.62 in 6.2 mi West 4.6 mph - N/A   Mostly Cloudy
7:00 PM 78 °F 75 °F 87% 29.65 in 6 mi West 6.9 mph - -   Partly Cloudy
7:00 PM 77.0 °F 75.2 °F 94% 29.65 in 6.2 mi West 6.9 mph - N/A   Mostly Cloudy
7:30 PM 78.8 °F 75.2 °F 89% 29.65 in 6.2 mi West 5.8 mph - N/A   Mostly Cloudy
8:00 PM 78.8 °F 75.2 °F 89% 29.65 in 6.2 mi West 5.8 mph - N/A   Mostly Cloudy
8:30 PM 78.8 °F 75.2 °F 89% 29.65 in 6.2 mi West 6.9 mph - N/A   Mostly Cloudy
9:00 PM 78.8 °F 75.2 °F 89% 29.68 in 6.2 mi West 6.9 mph - N/A   Mostly Cloudy
9:30 PM 78.8 °F 75.2 °F 89% 29.68 in 5.6 mi West 9.2 mph - N/A Rain Light Rain
10:00 PM 78.8 °F 75.2 °F 89% 29.68 in 5.6 mi West 5.8 mph - N/A Rain Light Rain
10:30 PM 78.8 °F 75.2 °F 89% 29.68 in 6.2 mi West 5.8 mph - N/A   Mostly Cloudy
11:00 PM 78.8 °F 75.2 °F 89% 29.68 in 6.2 mi WSW 5.8 mph - N/A   Mostly Cloudy
11:30 PM 78.8 °F 75.2 °F 89% 29.68 in 6.2 mi West 6.9 mph - N/A   Mostly Cloudy